Wind_Speed
30 31 34 30 29 27 26 26 28 28 21 24 27 32 32 28 31 29 29 29 29 27 21 20 20 17 14 15 16 15 16 19 22 24 25 25 24 26 25 23 23 22 23 24
31 38 32 29 28 26 25 28 31 30 25 22 24 33 32 29 29 29 30 31 32 31 28 25 23 22 18 16 16 17 18 21 24 25 22 22 23 23 22 21 22 18 18 18
35 34 14 22 30 33 31 31 33 30 26 30 28 34 29 22 13 17 22 26 25 32 33 28 25 22 20 17 17 18 20 22 22 19 19 20 20 20 17 17 16 14 15 16
28 33 36 28 24 17 25 23 30 23 23 14 10 9 28 22 11 19 23 24 18 23 26 29 27 24 21 18 17 18 18 18 16 15 16 17 17 13 16 13 10 10 12 9
30 27 23 27 30 32 29 14 14 21 21 23 18 12 12 18 7 3 11 7 13 20 19 21 21 21 18 16 16 16 15 14 12 13 14 14 12 12 13 10 9 10 10 8
35 32 30 27 14 19 20 19 15 13 13 8 20 17 7 8 10 6 13 6 6 12 17 20 16 17 15 14 13 13 11 10 10 12 12 11 9 10 10 9 7 7 8 8
31 38 35 32 23 21 21 11 4 3 4 5 9 11 22 18 20 8 6 12 8 8 13 18 18 15 13 11 10 9 8 7 9 11 9 8 9 11 12 9 8 10 10 9
20 22 30 36 36 27 23 22 7 8 7 5 7 8 3 4 8 18 22 18 12 12 13 16 16 13 10 8 7 7 6 5 8 9 8 7 10 12 13 11 12 13 13 14
16 25 25 23 17 31 24 25 30 17 8 2 5 7 9 17 9 17 14 11 14 14 16 14 13 10 7 6 7 7 6 5 9 9 9 8 10 12 14 15 17 19 19 17
11 20 25 15 24 25 32 25 14 18 6 8 3 6 12 15 9 12 5 12 13 13 15 13 11 8 7 7 7 7 8 7 11 11 11 10 13 14 15 17 19 20 21 23
14 8 17 17 23 29 28 29 16 14 24 9 4 5 8 8 20 15 3 9 11 12 13 11 9 8 7 6 7 8 8 7 11 13 14 13 14 15 17 17 19 20 23 29
12 9 13 26 18 20 31 31 39 15 10 14 18 14 7 12 15 14 6 5 7 11 12 10 8 7 6 6 7 8 8 7 9 10 11 12 13 17 16 14 15 20 21 20
14 7 8 9 29 16 10 17 26 27 24 26 7 8 24 19 1 6 16 16 8 3 6 6 5 6 6 7 7 9 9 7 8 7 8 10 8 6 8 4 1 2 2 5
26 19 12 12 16 17 20 11 6 16 19 23 28 24 26 21 15 13 21 17 15 14 9 5 8 7 7 8 8 9 10 8 7 7 6 4 2 6 8 2 2 5 6 12
26 27 25 24 21 20 22 31 35 22 9 8 10 18 29 28 27 23 23 19 17 16 4 7 8 9 9 9 9 9 9 8 7 7 4 2 6 8 4 5 4 5 8 12
19 20 26 30 32 23 25 30 38 38 26 23 22 21 20 24 29 28 25 11 12 5 14 13 11 10 8 9 10 10 10 9 7 7 4 4 6 8 5 9 5 6 9 10
24 20 16 22 26 24 21 31 31 30 31 23 22 21 24 25 23 21 19 16 15 18 18 17 13 13 11 9 11 11 11 10 9 8 6 7 8 10 10 9 8 6 12 15
30 24 21 16 13 7 15 16 13 18 23 22 20 8 8 17 26 29 28 25 21 19 17 17 13 12 15 12 12 12 12 12 11 10 9 10 9 9 9 9 8 10 10 11
33 30 21 11 18 16 14 15 12 13 16 19 28 22 21 22 16 16 22 27 28 23 16 16 17 16 19 15 13 13 13 14 12 12 12 11 11 11 11 11 10 11 12 12
29 31 31 14 7 8 9 9 8 10 16 15 12 19 26 24 22 19 25 24 28 25 16 16 18 15 19 20 15 14 14 15 13 14 14 13 14 13 13 13 13 12 13 14
14 30 38 24 8 9 15 15 10 7 9 18 17 21 27 27 25 21 23 26 27 25 19 17 16 13 12 18 15 14 15 16 15 16 17 16 17 16 15 14 15 16 15 15
18 11 18 19 6 13 17 20 26 15 13 13 15 18 16 26 22 22 22 24 29 26 24 19 16 15 13 13 15 14 16 17 17 18 19 19 19 18 18 18 17 17 16 14
24 27 18 19 28 28 19 13 16 11 9 12 19 21 24 20 22 24 24 26 27 29 28 22 18 18 17 14 14 15 19 18 19 21 22 23 22 21 20 19 18 15 14 14
25 22 20 20 27 22 16 17 22 18 21 17 14 16 23 28 23 28 24 24 26 24 27 26 21 21 21 19 15 17 19 20 20 22 24 25 24 23 23 21 20 17 14 11
25 23 28 31 29 22 27 25 27 24 24 23 20 18 18 29 33 24 24 21 24 19 26 25 22 25 26 23 18 20 22 23 22 24 27 27 26 25 23 22 19 15 11 9
28 27 28 32 24 25 22 18 19 24 27 26 26 23 22 25 30 32 31 22 18 17 20 24 24 25 27 26 22 22 24 25 24 26 28 28 27 26 23 18 13 10 10 9
Wind_Direction
239 237 244 263 256 260 266 268 273 274 271 276 274 274 273 269 264 260 258 257 256 255 252 250 253 254 257 253 256 261 274 282 288 288 286 287 289 283 282 278 272 260 251 253
240 246 260 258 254 255 260 265 267 276 282 278 284 280 278 276 275 272 266 258 256 253 251 251 253 255 260 259 258 266 277 283 287 286 289 292 283 281 272 267 266 260 247 250
251 257 265 252 258 256 256 261 268 274 284 286 291 287 287 286 283 274 263 259 254 247 242 240 245 249 254 258 259 268 275 283 285 288 292 283 279 275 273 262 257 259 242 244
258 256 254 254 257 258 261 274 267 275 284 279 283 292 291 298 293 293 270 258 255 239 235 233 237 245 248 248 256 266 278 282 285 294 283 277 276 274 259 243 226 223 227 220
249 256 254 257 266 258 265 265 265 283 271 275 269 269 284 306 313 102 12 325 250 230 231 220 224 235 230 238 254 270 276 278 293 288 279 273 269 251 233 208 222 214 215 218
254 256 259 265 260 263 266 265 276 267 264 256 261 241 273 288 273 254 335 294 269 228 211 203 210 212 222 239 257 268 271 285 298 283 277 269 249 220 219 219 218 212 205 226
258 255 253 251 239 248 246 231 224 252 224 251 236 230 260 277 282 279 325 327 292 226 222 215 211 209 224 243 260 262 265 289 292 276 273 260 224 211 215 221 213 219 230 231
260 263 247 245 238 240 227 219 201 233 225 248 227 233 226 161 304 297 296 290 255 216 199 194 205 213 230 253 255 247 255 285 278 267 256 245 228 225 224 221 227 230 237 246
265 255 256 244 242 219 216 219 232 258 282 274 226 263 247 297 289 318 297 263 198 205 200 206 208 217 245 256 242 234 242 264 266 258 250 249 246 239 236 238 239 235 239 237
253 274 256 251 220 218 221 227 209 222 229 244 242 241 260 294 11 344 252 169 181 199 205 207 213 227 257 263 241 231 237 251 258 260 253 254 260 260 253 250 250 251 251 252
320 275 247 229 217 204 203 212 200 222 237 241 246 253 247 261 13 4 179 164 190 198 197 205 217 238 260 269 248 236 236 254 260 257 258 259 262 265 263 261 262 263 261 261
317 274 259 235 212 217 231 228 211 184 216 232 229 231 248 195 352 24 72 140 170 183 190 204 225 249 266 271 252 244 237 254 264 262 266 271 272 268 263 266 275 281 279 269
288 290 315 265 224 228 235 195 209 216 217 232 209 211 234 262 195 10 41 47 52 162 193 207 242 253 257 271 260 249 246 257 265 261 277 296 298 258 214 246 297 303 122 92
270 271 255 254 284 304 291 256 284 196 211 228 232 235 235 235 238 259 293 316 337 338 326 302 340 294 256 255 263 253 246 251 260 262 286 295 151 150 153 132 2 153 110 108
266 266 264 264 272 288 292 281 283 281 237 227 206 217 231 239 249 247 256 286 300 318 334 327 295 306 283 252 255 256 242 238 244 257 257 179 148 157 164 120 92 145 124 138
268 283 262 265 266 268 268 277 279 280 274 271 282 258 207 226 244 247 242 249 272 276 310 325 304 283 283 263 248 252 241 224 227 242 228 169 178 193 180 142 136 122 133 134
277 280 269 261 261 262 261 258 262 273 275 275 261 278 243 245 233 243 227 251 257 261 281 287 298 281 256 252 239 242 238 216 218 226 214 158 143 144 133 131 127 130 124 132
255 256 262 248 212 238 257 260 248 263 268 266 264 255 276 265 252 257 255 250 252 255 256 267 270 262 250 242 236 236 235 216 213 217 202 170 160 150 149 145 131 122 130 129
248 244 239 214 220 253 257 263 265 244 258 245 251 247 245 252 262 263 254 247 248 253 252 261 265 253 233 222 231 233 229 219 208 211 201 181 172 162 152 152 135 124 121 117
238 229 225 217 197 215 258 207 217 222 229 234 223 215 229 230 247 248 249 245 243 249 241 245 255 235 239 231 222 227 224 217 206 209 199 188 173 167 155 148 137 131 127 123
219 218 214 215 216 237 228 201 269 207 198 190 184 198 211 223 234 230 238 240 240 240 230 232 232 216 235 232 219 221 219 210 200 208 196 187 173 163 156 150 143 135 130 126
264 234 206 210 186 244 260 246 248 257 221 210 209 219 214 219 218 225 232 238 237 239 225 224 215 214 224 231 220 213 214 205 196 205 193 183 170 165 158 153 148 142 138 132
251 245 231 206 231 254 256 259 238 199 253 268 255 249 238 226 207 214 214 226 230 237 228 233 221 216 217 220 218 210 208 201 197 201 190 178 171 166 160 157 153 153 151 149
252 246 238 238 242 244 247 242 222 250 275 270 277 273 255 246 226 206 200 208 214 219 230 232 220 220 219 215 212 206 204 197 196 199 186 178 172 168 166 164 163 162 159 154
251 247 240 238 240 249 261 244 252 266 258 263 267 276 271 252 239 237 206 189 202 201 219 215 215 215 216 211 208 208 202 192 191 194 185 179 173 170 172 173 173 169 162 158
248 245 239 250 256 260 272 267 263 258 255 259 268 268 270 266 255 254 225 193 194 194 203 212 212 210 211 208 202 205 201 192 189 192 186 181 176 174 177 177 175 168 167 169
Height
3100 3099 3095 3099 3102 3104 3107 3106 3105 3105 3107 3102 3102 3097 3097 3101 3101 3102 3103 3103 3104 3105 3108 3109 3110 3111 3112 3113 3114 3116 3116 3116 3116 3115 3113 3111 3110 3109 3109 3109 3110 3109 3110 3111
3098 3089 3095 3097 3099 3100 3100 3101 3100 3099 3101 3097 3095 3089 3090 3092 3093 3094 3095 3095 3096 3098 3100 3103 3104 3106 3107 3108 3110 3111 3111 3110 3110 3107 3105 3104 3104 3103 3104 3103 3102 3103 3105 3106
3090 3090 3092 3093 3094 3094 3093 3095 3096 3096 3097 3093 3090 3082 3083 3086 3085 3086 3086 3085 3086 3087 3091 3094 3098 3100 3101 3103 3104 3105 3106 3105 3103 3100 3099 3098 3097 3098 3097 3097 3097 3098 3099 3102
3087 3087 3087 3089 3088 3092 3088 3090 3092 3092 3093 3089 3088 3079 3076 3080 3080 3079 3078 3077 3077 3079 3081 3085 3090 3093 3096 3097 3099 3100 3100 3098 3096 3094 3094 3094 3093 3092 3093 3093 3094 3096 3097 3099
3077 3078 3081 3082 3085 3086 3084 3088 3087 3089 3087 3085 3083 3084 3072 3075 3074 3074 3073 3071 3071 3073 3075 3079 3083 3087 3090 3092 3094 3094 3094 3092 3091 3090 3090 3089 3089 3089 3090 3091 3094 3094 3094 3096
3070 3075 3076 3075 3081 3081 3084 3085 3084 3084 3085 3079 3078 3080 3070 3071 3072 3070 3070 3069 3068 3069 3072 3075 3079 3083 3086 3088 3089 3089 3089 3087 3087 3087 3087 3086 3087 3087 3088 3091 3091 3093 3094 3095
3067 3062 3066 3070 3074 3077 3079 3081 3080 3083 3082 3074 3073 3073 3066 3067 3067 3068 3068 3069 3067 3067 3068 3071 3076 3079 3082 3084 3084 3085 3085 3083 3084 3085 3084 3084 3085 3085 3087 3088 3089 3090 3092 3095
3060 3056 3057 3058 3060 3065 3071 3076 3075 3075 3071 3070 3070 3066 3061 3062 3064 3064 3062 3063 3065 3064 3067 3070 3073 3076 3078 3080 3080 3081 3081 3081 3083 3082 3082 3083 3084 3084 3084 3085 3087 3088 3089 3091
3055 3049 3051 3052 3056 3057 3062 3067 3071 3071 3069 3069 3064 3062 3060 3059 3059 3058 3055 3052 3058 3062 3065 3068 3071 3073 3074 3076 3077 3078 3078 3078 3080 3081 3081 3082 3082 3083 3082 3083 3083 3084 3085 3086
3050 3046 3046 3048 3048 3049 3049 3055 3064 3067 3067 3064 3060 3060 3059 3057 3057 3053 3051 3052 3056 3059 3062 3066 3068 3070 3071 3073 3074 3075 3076 3076 3078 3079 3079 3079 3080 3080 3081 3080 3080 3080 3081 3082
3046 3045 3041 3041 3039 3039 3046 3049 3051 3058 3059 3055 3056 3057 3055 3055 3055 3051 3050 3051 3054 3056 3060 3064 3066 3068 3069 3070 3071 3072 3073 3073 3075 3076 3076 3076 3077 3077 3077 3077 3076 3076 3075 3074
3042 3039 3035 3033 3035 3035 3039 3037 3039 3044 3052 3050 3053 3054 3052 3053 3055 3052 3051 3052 3054 3056 3058 3062 3064 3066 3067 3068 3069 3070 3071 3071 3072 3072 3072 3073 3072 3072 3073 3072 3072 3070 3068 3065
3040 3037 3032 3025 3030 3028 3032 3030 3035 3036 3039 3041 3047 3047 3051 3053 3055 3054 3053 3055 3056 3058 3059 3060 3061 3063 3064 3066 3067 3067 3068 3068 3069 3069 3070 3069 3067 3066 3069 3070 3069 3068 3065 3064
3036 3033 3032 3030 3026 3029 3026 3025 3029 3029 3031 3033 3035 3042 3046 3048 3050 3052 3051 3054 3056 3058 3060 3060 3060 3060 3061 3063 3064 3065 3066 3066 3067 3068 3068 3067 3066 3067 3068 3069 3068 3068 3067 3067
3030 3026 3028 3025 3025 3022 3022 3024 3020 3028 3027 3030 3029 3032 3039 3042 3044 3049 3050 3050 3054 3055 3056 3057 3057 3058 3058 3060 3061 3062 3063 3064 3065 3066 3066 3066 3066 3067 3068 3069 3069 3067 3067 3068
3023 3020 3022 3018 3019 3019 3018 3016 3016 3017 3022 3023 3025 3028 3032 3036 3038 3042 3046 3048 3050 3052 3053 3054 3054 3055 3055 3056 3058 3059 3061 3062 3063 3065 3065 3065 3065 3066 3067 3069 3070 3069 3068 3069
3016 3016 3016 3012 3014 3014 3010 3007 3010 3011 3012 3017 3020 3024 3027 3029 3033 3036 3041 3043 3045 3047 3048 3049 3050 3051 3052 3053 3054 3056 3058 3060 3062 3063 3064 3064 3065 3066 3067 3069 3070 3070 3070 3071
3006 3010 3011 3007 3007 3005 3001 3002 3002 3001 3005 3010 3014 3021 3024 3025 3028 3031 3034 3036 3038 3040 3042 3044 3045 3046 3048 3049 3051 3052 3055 3057 3059 3062 3063 3064 3065 3066 3068 3070 3071 3072 3073 3074
2996 3001 3002 2999 2999 2998 2997 2997 2998 2997 3001 3004 3007 3016 3017 3019 3024 3025 3026 3029 3032 3034 3037 3039 3040 3041 3043 3044 3047 3049 3052 3055 3057 3060 3062 3063 3065 3067 3069 3071 3072 3073 3075 3076
2984 2989 2994 2993 2994 2994 2994 2994 2994 2996 2999 2997 2999 3005 3013 3013 3017 3019 3020 3023 3025 3028 3032 3034 3035 3037 3039 3041 3043 3046 3049 3052 3054 3058 3060 3062 3064 3067 3070 3073 3074 3075 3077 3078
2980 2980 2982 2986 2989 2990 2990 2991 2991 2995 2998 2996 2998 3000 3001 3006 3008 3012 3013 3017 3019 3023 3026 3029 3031 3033 3035 3038 3039 3042 3046 3049 3052 3056 3059 3062 3064 3068 3070 3073 3075 3077 3079 3080
2978 2977 2976 2982 2987 2986 2983 2986 2989 2990 2989 2992 2994 2995 2996 2998 2999 3004 3006 3012 3015 3018 3021 3024 3026 3029 3032 3035 3037 3039 3043 3046 3049 3054 3057 3061 3065 3068 3070 3074 3076 3078 3080 3082
2972 2972 2973 2977 2975 2977 2980 2981 2983 2985 2986 2987 2988 2990 2990 2990 2991 2996 3002 3007 3009 3012 3016 3019 3022 3024 3028 3031 3034 3036 3040 3043 3046 3051 3056 3060 3064 3067 3070 3074 3077 3079 3081 3083
2966 2968 2969 2974 2968 2972 2976 2979 2979 2981 2982 2981 2981 2982 2985 2983 2986 2990 2996 3001 3003 3005 3009 3013 3017 3020 3024 3027 3030 3033 3037 3040 3044 3050 3054 3059 3063 3067 3070 3073 3076 3079 3082 3084
2961 2964 2964 2962 2964 2968 2970 2973 2976 2977 2976 2976 2977 2977 2978 2980 2981 2984 2990 2993 2997 2998 3002 3006 3010 3014 3019 3023 3026 3030 3033 3037 3042 3048 3053 3057 3061 3065 3070 3073 3077 3079 3082 3084
2954 2956 2957 2953 2960 2964 2964 2967 2968 2967 2967 2970 2970 2972 2973 2973 2976 2980 2981 2985 2989 2991 2996 3000 3004 3008 3014 3018 3022 3026 3030 3035 3040 3046 3051 3056 3060 3064 3068 3073 3077 3079 3081 3083